Etusivu
METAR-TAF:

METAR-TAF

Lentoasemat :

Tambacounda, Senegal

Leveyspiiri: 13-46N, Pituuspiiri: 013-41W, korkeus merenpinnasta: 49 m

Tämänhetkinen sää

Tämä raportti tehtiin 53 minuuttia sitten, kello 18.00 UTC
Tuuli 10 kn pohjoisesta
Lämpötila 34°C
Kosteus 11%
Ilmanpaine 1014 hPa
Näkyvyys 10 km tai enemmän
ei pilviä alle 1500 m:ssä eikä cumulonimbus-pilviä

METAR: GOTT 151800Z 36010KT CAVOK 34/00 Q1014

Aika: 18:53 (18:53 UTC)


TAF: puuttuu

Säähavainnot ja -ennusteet yli 4000 lentoasemalta (METAR- ja TAF-raportit).

Käytössä olevat sääasemat on merkitty karttaan keltaisilla ja punaisilla pisteillä.

Aseta hiiri pisteen päälle nähdäksesi sääaseman nimen.

Klikkaa sitten nähdäksesi säähavainnot ja -ennusteet.

Kartan vaihtaminen: klikkaa mustalla rastilla varustettuja vihreitä pisteitä, niin voit zoomata sisään; viivalla varustettua vihreää pistettä, niin voit zoomata ulos tai vihreitä nuolia, niin pääset viereisille kartoille.


METAR-TAF: